{"data":{"norad_id":47797,"intl_designator":"2021-018L","name":"STARLINK-2377","alt_names":[],"object_type":"PAYLOAD","status":"ACTIVE","operator":null,"country":"US","launch_date":"2021-03-11","launch_site_code":"AFETR","launch_vehicle":null,"mission":null,"orbit_class":"UNKNOWN","rcs_meters":null,"size_class":null,"mass_kg":null,"dimensions":null,"purposes":["comms"],"wikipedia_slug":null,"has_3d_model":false,"image_url":null,"decayed_at":null,"tle_current":{"epoch":"2026-05-24T17:59:47.241312Z","epoch_age_seconds":92658,"freshness":"FRESH","line1":"1 47797U 21018L   26144.74985233  .00002391  00000+0  88730-4 0  9998","line2":"2 47797  53.1596 261.6273 0001045  86.9171 273.1950 15.31717006288190","mean_motion":15.31717006,"eccentricity":0.0001045,"inclination_deg":53.1596,"raan_deg":261.6273,"arg_perigee_deg":86.9171,"mean_anomaly_deg":273.195,"bstar":8.873e-5,"rev_number":28819,"period_min":94.012144172799,"perigee_km":469.97359934507,"apogee_km":471.40500404212,"semimajor_km":6848.8263016936,"source":"CELESTRAK","updated_at":"2026-05-25T13:38:16.599190Z"}}}